Zurück zum Katalog

STARLINK-31521

AktivKommunikationVLEO
NORAD 59015·PAYLOAD·🇺🇸 United States

Gestartet Feb 23, 2024 von Vandenberg Space Force Base

Loading…

Nächste Überflüge (nächste 24 Stunden)

TLE

AktuellSource: CelesTrak SupGP

Epoche: Sep 15, 2026, 03:21 UTC

1 59015C 24036T   26258.14006944 -.00018934  00000+0 -60876-3 0  2580
2 59015  53.1566 277.9654 0001079  88.3028 195.0793 15.31717953    11

Verfolge STARLINK-31521 in Echtzeit mit AllMySat

Download on the App Store